Location: Avenches
(46.8809°N, 7.0410°E)
Time: 09:06:18
(UTC+00:00)

H-2A R/B - Pass Details

Date: 30 March 2020
Orbit: 734 x 837 km, 98.2° (Epoch: 23 May)

Event Time Altitude Azimuth Distance (km) Brightness Sun altitude
Rises 18:27:43 0° 149° (SSE) 3,337 4.9 -5.7°
Reaches altitude 10° 18:30:07 10° 145° (SE) 2,396 4.1 -6.1°
Maximum altitude 18:35:14 52° 70° (ENE) 987 2.3 -6.9°
Drops below altitude 10° 18:40:16 10° 355° (N) 2,348 4.8 -7.8°
Sets 18:42:36 0° 351° (N) 3,264 5.6 -8.2°
